Regional Weather Roundup
Issued by NWS Jackson, KY

Home | Current Version | Previous Version | Text Only | Print | Product List | Glossary Off
Versions: 1 2 3 4 5 6 7 8 9 10 11 12 13 14 15 16 17 18 19 20 21 22 23 24 25 26 27 28 29 30 31 32 33 34 35 36 37 38 39 40 41 42 43 44 45 46 47 48 49 50

000
ASUS43 KJKL 280710
RWRJKL

EAST KENTUCKY HOURLY WEATHER ROUNDUP
NATIONAL WEATHER SERVICE JACKSON KY
300 AM EDT SAT MAR 28 2015

NOTE: "FAIR" INDICATES FEW OR NO CLOUDS BELOW 12,000 FEET WITH
NO SIGNIFICANT WEATHER AND/OR OBSTRUCTIONS TO VISIBILITY.

* THESE REPORTS ARE NOT UNDER NWS QUALITY CONTROL AND MAY NOT
  REPORT WEATHER SUCH AS PRECIPITATION AND FOG.

KYZ079-080-083-085-087-088-110-112-115-119-120-280800
...EASTERN KENTUCKY...

CITY           SKY/WX    TMP DP  RH WIND       PRES   REMARKS
JACKSON        MOCLDY    27  12  53 VRB5      30.04S WCI  22
LONDON         CLOUDY    30  14  51 N6        30.07S WCI  24
SOMERSET*      CLOUDY    30  18  59 N7        30.11S WCI  23
MONTICELLO*    FLURRIES  32  21  64 NW10      30.13R WCI  24
MIDDLESBORO*   CLOUDY    31  21  65 NE6       30.06S WCI  25
HAZARD APT*    CLOUDY    30  16  55 N3        30.05S
BLACK MTN*       N/A     16  16 100 VRB7        N/A  WCI   6
PIKEVILLE APT* CLOUDY    27  18  69 N8        30.02S WCI  18
BIG SANDY*     CLOUDY    28  16  61 N7        30.04S WCI  21
MOREHEAD APT*  CLOUDY    27  18  69 N3        30.10S
$$

KYZ035-036-041-042-044-050-067-078-099-280800
...CENTRAL KENTUCKY...

CITY           SKY/WX    TMP DP  RH WIND       PRES   REMARKS
MT STERLING*   CLOUDY    27  21  80 N5        30.10S WCI  21
FLEMING/MASON* CLOUDY    27  14  59 NW9       30.10S WCI  17
DANVILLE*      PTCLDY    27  18  69 N7        30.12S WCI  19
RICHMOND*      CLOUDY    28  14  54 N8        30.10R WCI  20
LEXINGTON      CLOUDY    24  16  71 NW5       30.11R WCI  18
FRANKFORT      CLEAR     26  13  57 N6        30.12R WCI  19
$$

KYZ091>093-OHZ055-061-077-WVZ005-015-034-035-042-280800
...SOUTHERN OHIO/WEST VIRGINIA...

CITY           SKY/WX    TMP DP  RH WIND       PRES   REMARKS
COVINGTON      CLEAR     24  12  60 N13       30.12R WCI  12
COLUMBUS       MOCLDY    19  16  86 N6        30.10S WCI  11
DAYTON         PTCLDY    21  16  81 N6        30.12R WCI  13
WILMINGTON     MOCLDY    22  12  65 N7        30.10R WCI  13
HUNTINGTON     CLOUDY    27  11  51 N8        30.07S WCI  19
CHARLESTON     CLOUDY    27   3  35 NW14G25   30.03F WCI  16
PINEVILLE*     CLOUDY    28  19  70 MISG      30.02R
BECKLEY        FLURRIES  21  13  71 NW12G18   29.90F WCI   9
BLUEFIELD      FLURRIES  25  15  66 NW9G25    29.88R WCI  15
$$

VAZ002-007-008-TNZ017-027-036-066-071-280800
...SOUTHWEST VIRGINIA/EAST TENNESSEE...

CITY           SKY/WX    TMP DP  RH WIND       PRES   REMARKS
WISE*          FLURRIES  27  19  74 NW5       29.94S WCI  21
JONESVILLE*    CLOUDY    32  19  59 NW6       30.05R WCI  26
ABINGDON*      LGT SNOW  29  23  77 N10G23    29.94S WCI  20
BRISTOL        CLOUDY    33  22  63 NW10G18   29.98R WCI  25
KNOXVILLE      FLURRIES  34  25  69 N10       30.05S WCI  26
OAK RIDGE      CLOUDY    35  21  56 NW9       30.08R WCI  28
CROSSVILLE     CLOUDY    30  17  58 NW14G21   30.04S WCI  19
NASHVILLE      MOCLDY    33  19  56 N5        30.15S WCI  29
$$

...KEY TO REMARKS...
VSB - VISIBILITY IN MILES
WCI - WIND CHILL INDEX
HX  - HEAT INDEX

$$



USA.gov is the U.S. government's official web portal to all federal, state and local government web resources and services.